Other Public Products
Issued by NWS Charleston, SC

Current Version | Previous Version | Text Only | Print | Product List | Glossary Off
Versions: 1 2 3 4 5 6 7 8 9 10 11 12 13 14 15 16 17 18 19 20 21 22 23 24 25 26 27 28 29 30 31 32 33 34 35 36 37 38 39 40 41 42 43 44 45 46 47 48 49 50
556 FPUS82 KCHS 241512 OPUCHS TEST...KCHS/KSAV Gateway Observations...TEST National Weather Service Charleston SC 1100 AM EDT SAT JUN 24 2017 NOTE: "fair" indicates few or no clouds below 12,000 feet with no significant weather and/or obstructions to visibility. SCZ050-WAZ558-NCZ071-TXZ119-213-PAZ071-DCZ001-FLZ074-172-MI076- NYZ176-178-MAZ016-IL014-TNZ027-NJZ106-GAZ044-MD014-241600- ...Gateway Observations for Charleston International... CITY SKY/WX TMP DP RH WIND PRES REMARKS Chas Airport MOSUNNY 87 72 60 W16G22 30.02S HX 93 Seattle SUNNY 68 53 58 N8 30.15S Charlotte PTSUNNY 79 71 76 SW6 29.99R Dallas DFW TSTM 70 68 93 CALM 30.15F FOG Dallas Love RAIN 70 67 90 N3 30.18R FOG Philladelphia PTSUNNY 82 66 58 NW18G28 29.75R Wash National CLOUDY 82 64 54 NW20G26 29.85R Baltimore MOSUNNY 81 65 58 W18G25 29.82R Miami PTSUNNY 88 73 61 E13G18 30.08R HX 95 Detroit MOSUNNY 74 55 51 W12 29.86S Newark MOSUNNY 83 69 62 W14G22 29.65R Laguardia PTSUNNY 80 71 74 NW10 29.64R J F K PTSUNNY 81 73 76 W9 29.66R Boston Logan LGT RAIN 73 72 96 S6 29.55F Ft. Lauderdale PTSUNNY 86 74 67 SE10 30.08R HX 94 Chicago O`Hare PTSUNNY 69 54 58 W8 29.95S Chicago Midway PTSUNNY 70 56 61 W10 29.96R Houston Bush TSTM 75 72 90 NW6 30.06R VSB 1 Houston Hobby TSTM 77 74 90 N9 30.06R VSB 3/4 Nashville PTSUNNY 79 64 60 N9 30.04S Atlanta CLOUDY 76 74 93 W7 30.03R $$ GAZ044-118-TXZ119-213-NCZ071-DCZ001-MDZ014-506-PAZ021-071-NJZ106- NYZ176-178-MAZ106-OHZ011-021-055-MIZ076-KYZ091-ILZ014-INZ047- MNZ060-ONZ431-241600- ...Gateway Observations for Savannah International... CITY SKY/WX TMP DP RH WIND PRES REMARKS Savannah Arpt MOSUNNY 88 72 58 W8 30.04R HX 94 Atlanta CLOUDY 76 74 93 W7 30.03R Charlotte PTSUNNY 79 71 76 SW6 29.99R Dallas DFW TSTM 70 68 93 CALM 30.15F FOG Houston Bush TSTM 75 72 90 NW6 30.06R VSB 1 Wash National CLOUDY 82 64 54 NW20G26 29.85R Wash Dulles MOSUNNY 81 64 56 NW17 29.86R Baltimore MOSUNNY 81 65 58 W18G25 29.82R Philadelphia PTSUNNY 82 66 58 NW18G28 29.75R Newark MOSUNNY 83 69 62 W14G22 29.65R Laguardia PTSUNNY 80 71 74 NW10 29.64R J F K PTSUNNY 81 73 76 W9 29.66R Boston LGT RAIN 73 72 96 S6 29.55F Pittsburg MOSUNNY 73 58 59 W8 29.90R Akron MOSUNNY 73 57 57 W14 29.89R Cleveland MOSUNNY 74 60 61 W10 29.88S Cincinnati MOSUNNY 71 61 70 VRB5 30.00R Columbus SUNNY 71 62 71 NW7 29.95R Detroit MOSUNNY 74 55 51 W12 29.86S Chicago O`Hare PTSUNNY 69 54 58 W8 29.95S Minneapolis MOSUNNY 63 41 44 NW21 30.02R Indianapolis MOSUNNY 71 59 65 W9 29.99S Toronto Canada MOSUNNY 72 52 49 W16 29.75R $$

USA.gov is the U.S. government's official web portal to all federal, state and local government web resources and services.